Regional Weather Roundup
Issued by NWS Sioux Falls, SD

Home | Current Version | Previous Version | Graphics & Text | Print | Product List | Glossary On
Versions: 1 2 3 4 5 6 7 8 9 10 11 12 13 14 15 16 17 18 19 20 21 22 23 24 25 26 27 28 29 30 31 32 33 34 35 36 37 38 39 40 41 42 43 44 45 46 47 48 49 50
585
ASUS43 KFSD 271102
RWRFSD

WEATHER ROUNDUP FOR SE SOUTH DAKOTA/SW MINNESOTA/NW IOWA
NATIONAL WEATHER SERVICE SIOUX FALLS SD
600 AM CDT TUE SEP 27 2016

NOTE: "FAIR" INDICATES FEW OR NO CLOUDS BELOW 12,000 FEET WITH NO
SIGNIFICANT WEATHER AND OR OBSTRUCTIONS TO VISIBILITY.


SDZ038>040-050-052>070-271200-
SOUTHEAST SOUTH DAKOTA

CITY           SKY/WX    TMP DP  RH WIND       PRES   REMARKS
CHAMBERLAIN    CLEAR     46  42  86 W6        30.05F
HURON          CLEAR     44  36  73 W7        30.01F
MADISON        FAIR      41  36  81 W7        30.01S
MITCHELL       CLEAR     48  38  68 W6        30.03F
SIOUX FALLS    CLEAR     46  37  71 W9        30.01F
WINNER         FAIR      48  39  71 SW7       30.08F HAZE
YANKTON        CLEAR     48  39  71 CALM      30.02F
$$

MNZ071-072-080-081-089-090-097-098-271200-
SOUTHWEST MINNESOTA

CITY           SKY/WX    TMP DP  RH WIND       PRES   REMARKS
FAIRMONT       CLEAR     44  38  79 W7        29.94S
JACKSON        PTCLDY    45  34  65 W6        29.96S
LUVERNE        CLEAR     41  34  75 NW5       30.00F
MARSHALL       CLEAR     45  37  73 W10       29.96S
MONTEVIDEO     CLEAR     43  36  75 NW6       29.96S
PIPESTONE      CLEAR     43  37  81 W5        29.99S
REDWOOD FALLS  CLEAR     44  37  76 W9        29.94R
TRACY          CLEAR     47  38  71 W6        29.96S
WINDOM         CLEAR     43  37  81 W6        29.95S
WORTHINGTON    CLEAR     42  36  79 W10       29.98S
$$

IAZ001>003-012>014-020>022-031-032-NEZ013-014-SDZ071-271200-
NORTHWEST IOWA

CITY           SKY/WX    TMP DP  RH WIND       PRES   REMARKS
CHEROKEE       CLEAR     46  38  73 CALM      30.00F
DENISON        CLEAR     45  43  93 CALM      30.00F
ESTHERVILLE    CLEAR     43  38  82 W8        29.96S
LE MARS        CLEAR     43  41  93 SW5       30.02S
ORANGE CITY    CLEAR     41  37  87 W7        30.01S
SHELDON        CLEAR     45  37  76 W6        29.98S
SIOUX CITY     CLEAR     46  42  86 W3        30.03S
SPENCER        CLEAR     42  37  82 W8        29.98S
STORM LAKE     CLEAR     45  39  81 W10       30.00S
$$

ABBREVIATIONS USED IN REMARKS
   TC - TEMPERATURE IN CELSIUS
  WCI - WIND CHILL INDEX
   HX - HEAT INDEX
  VSB - VISIBILITY





USA.gov is the U.S. government's official web portal to all federal, state and local government web resources and services.